Погода в Маслахате

Узбекистан     40°32′28″N   71°09′43″E
темп.,
°C
ветер,
м/с
пор.,
м/с
влажн.,
%
обл.,
%
осадки,
мм/ч
давл.,
гПа
погр.,
м
1 марта, пн
пн123:00+4в12360 0.0 102522
02:00+3св124129 0.0 102422
05:00+2в114930 0.0 102422
08:00+3всв2450100 0.0 1025126
11:00+9св343058 0.0 1022643
14:00+13св22220 0.0 1021976
17:00+13св11190 0.0 1022953
20:00+9св11240 0.0 102522
2 марта, вт
вт223:00+8всв11280 0.0 102622
02:00+5св22400 0.0 102725
05:00+4всв124850 0.0 102626
08:00+5св1244100 0.0 102667
11:00+11св2229100 0.0 1024435
14:00+14св2121100 0.0 1022849
17:00+14св2219100 0.0 1021771
20:00+12ссв1224100 0.0 102322
3 марта, ср
ср323:00+10зюз0126100 0.0 102322
02:00+10з2227100 0.0 102422
05:00+9зсз1130100 0.0 102422
08:00+10юз1239100 0.0 1024120
11:00+11сз125599 0.0 10221027
14:00+12с3251100 0.0 1021964
17:00+12ссв334999 0.0 1021717
20:00+9ссв366892 0.0 1023283
4 марта, чт
чт423:00+8св127395 0.0 102474
02:00+6в228654 0.0 102326
05:00+5в118970 0.0 102423
08:00+7всв118091 0.0 102383
11:00+12св345489 0.0 1020948
14:00+14всв334097 0.0 10181214
17:00+14ю113999 0.0 1019975
20:00+12зюз3550100 0.1 1022263
5 марта, пт
пт523:00+12ю3756100 0.1 1023262
02:00+10с1261100 0.0 102271
05:00+9ю1184100 1.3 102276
08:00+9зюз101660100 1.5 1024802
11:00+11зюз101440100 1.5 1025942
14:00+13з5734100 0.0 10231120
17:00+12сз443984 0.0 1024601
20:00+9всв235214 0.0 102691